Location: Buchberg
(46.9333°N, 15.8500°E)
Time: 03:32:13
(UTC+00:00)

Cosmos 1656 - Pass Details

Date: 14 July 2020
Orbit: 799 x 848 km, 71.1° (Epoch: 11 August)

Event Time Altitude Azimuth Distance (km) Brightness Sun altitude
Rises 00:45:08 0° 330° (NNW) 3,318 7.3 -17.6°
Reaches altitude 10° 00:47:34 10° 328° (NNW) 2,384 6.5 -17.5°
Maximum altitude 00:52:55 63° 248° (WSW) 896 3.6 -17.1°
Enters shadow 00:56:28 22° 173° (S) 1,711 4.8 -16.8°
